Tracking 27079 objects as of 24-Mar-2023
HD Live streaming from Space Station
objects crossing your sky now

DELTA 2 DEB

Track DELTA 2 DEB now!
10-day predictions


NORAD ID: 29422
Int'l Code: 2004-023D
Perigee: 189.2 km
Apogee: 5,127.5 km
Inclination: 38.8 °
Period: 142.3 minutes
Semi major axis: 9029 km
RCS: 0.0125 m2 (small)
Launch date: June 23, 2004
Source: United States (US)
Launch site: AIR FORCE EASTERN TEST RANGE (AFETR)

Note: This is SATELLITE DEBRIS
Your satellite tracking list
Your tracking list is empty




NASA's NSSDC Master Catalog

Two Line Element Set (TLE):
1 29422U 04023D   23079.39553389  .00105735  15507-7  41381-3 0  9990
2 29422  38.8352 113.3096 2734575 280.9857  49.8244 10.11855621 93389
Source of the keplerian elements: AFSPC